Kuantan, Malaysia

6:14 AM MYT on October 23, 2019 (GMT +0800)
Kuantan

Weather History for WMKD - August, 2019

Change the Weather History Date:

Saturday, August 31, 2019

  Actual Average Record
Temperature  
Mean Temperature 82 °F -  
Max Temperature 92 °F 90 °F - ()
Min Temperature 73 °F 72 °F - ()
Cooling Degree Days 18    
Growing Degree Days 32 (Base 50)    
Moisture  
Dew Point 74 °F    
Average Humidity 74    
Maximum Humidity 89    
Minimum Humidity 50    
Precipitation  
Precipitation 0.00 in 0.31 in - ()
Sea Level Pressure  
Sea Level Pressure 29.77 in    
Wind  
Wind Speed 2 mph ()    
Max Wind Speed 6 mph    
Max Gust Speed -    
Visibility 6.6 miles    
Events      
T = Trace of Precipitation, MM = Missing Value Source: Averaged Metar Reports

Daily Weather History Graph

Daily Weather History Graph

Search for Another Location

Airport or City:

Astronomy

Aug. 31, 2019 Rise Set
Actual Time 7:02 AM MYT 7:13 PM MYT
Civil Twilight 6:41 AM MYT 7:34 PM MYT
Nautical Twilight 6:16 AM MYT 7:58 PM MYT
Astronomical Twilight 5:52 AM MYT 8:23 PM MYT
Moon 7:41 AM MYT (8/31) 8:12 PM MYT (8/31)
Length of Visible Light 12h 53m
Length of Day
12h 11m
New Moon, 1% of the Moon is Illuminated
Aug 31
New Moon
Sep 6
First Quarter
Sep 14
Full
Sep 22
Last Quarter
Sep 29
New

Hourly Weather History & Observations

Time (MYT) Temp. Heat Index Dew Point Humidity Pressure Visibility Wind Dir Wind Speed Gust Speed Precip Events Conditions
12:00 AM 78.8 °F - 73.4 °F 83% 29.80 in 6.2 mi Variable 2.3 mph - N/A   Mostly Cloudy
1:00 AM 77.0 °F - 71.6 °F 83% 29.80 in 6.2 mi Calm Calm - N/A   Mostly Cloudy
2:00 AM 77 °F - 72 °F 81% 29.78 in 6 mi South 2.3 mph - -   Haze
2:00 AM 77.0 °F - 71.6 °F 83% 29.77 in 6.2 mi Variable 2.3 mph - N/A   Mostly Cloudy
3:00 AM 75.2 °F - 71.6 °F 89% 29.77 in 6.2 mi Calm Calm - N/A   Mostly Cloudy
4:00 AM 75.2 °F - 71.6 °F 89% 29.74 in 6.2 mi Calm Calm - N/A   Mostly Cloudy
5:00 AM 75.2 °F - 71.6 °F 89% 29.74 in 6.2 mi Variable 2.3 mph - N/A   Mostly Cloudy
6:00 AM 77.0 °F - 71.6 °F 83% 29.77 in 6.2 mi Variable 2.3 mph - N/A   Mostly Cloudy
7:00 AM 75.2 °F - 71.6 °F 89% 29.77 in 6.2 mi Calm Calm - N/A   Mostly Cloudy
8:00 AM 76 °F - 71 °F 80% 29.81 in 8 mi Calm Calm - -   Haze
8:00 AM 75.2 °F - 71.6 °F 89% 29.80 in 6.2 mi Calm Calm - N/A   Mostly Cloudy
9:00 AM 80.6 °F 85.4 °F 73.4 °F 79% 29.83 in 6.2 mi Variable 3.5 mph - N/A   Mostly Cloudy
10:00 AM 84.2 °F 90.9 °F 73.4 °F 70% 29.83 in 6.2 mi Variable 3.5 mph - N/A   Mostly Cloudy
11:00 AM 87 °F - 74 °F 58% 29.83 in 9 mi South 4.6 mph - -   Haze
11:00 AM 86.0 °F 95.1 °F 75.2 °F 70% 29.83 in 6.2 mi Variable 4.6 mph - N/A   Mostly Cloudy
1:00 PM 89.6 °F 99.8 °F 75.2 °F 62% 29.77 in 6.2 mi Variable 4.6 mph - N/A   Mostly Cloudy
2:00 PM 91 °F - 74 °F 50% 29.76 in 9 mi SSW 5.8 mph - -   Haze
2:00 PM 91.4 °F 102.5 °F 75.2 °F 59% 29.74 in 6.2 mi Variable 5.8 mph - N/A   Mostly Cloudy
3:00 PM 91.4 °F 100.1 °F 73.4 °F 55% 29.71 in 6.2 mi Variable 4.6 mph - N/A   Mostly Cloudy
4:00 PM 91.4 °F 100.1 °F 73.4 °F 55% 29.71 in 6.2 mi Variable 3.5 mph - N/A   Mostly Cloudy
5:00 PM 92 °F - 77 °F 54% 29.71 in 9 mi SE 3.5 mph - -   Haze
5:00 PM 91.4 °F 105.1 °F 77.0 °F 63% 29.71 in 6.2 mi Variable 3.5 mph - N/A   Mostly Cloudy
6:00 PM 87.8 °F 99.7 °F 77.0 °F 70% 29.71 in 6.2 mi Variable 4.6 mph - N/A   Mostly Cloudy
7:00 PM 86.0 °F 96.9 °F 77.0 °F 74% 29.71 in 6.2 mi Variable 3.5 mph - N/A   Mostly Cloudy
8:00 PM 83 °F - 75 °F 70% 29.75 in 7 mi Calm Calm - -   Haze
8:00 PM 82.4 °F 89.5 °F 75.2 °F 79% 29.74 in 6.2 mi Calm Calm - N/A   Mostly Cloudy
9:00 PM 82.4 °F 89.5 °F 75.2 °F 79% 29.77 in 6.2 mi Calm Calm - N/A   Mostly Cloudy
10:00 PM 80.6 °F 86.2 °F 75.2 °F 84% 29.80 in 6.2 mi Variable 2.3 mph - N/A   Mostly Cloudy
11:00 PM 80 °F - 74 °F 79% 29.83 in 7 mi SW 3.5 mph - -   Haze
11:00 PM 80.6 °F 86.2 °F 75.2 °F 84% 29.83 in 6.2 mi SW 3.5 mph - N/A   Mostly Cloudy